Regional Weather Roundup
Issued by NWS

Home | Current Version | Previous Version | Graphics & Text | Print | Product List | Glossary On
Versions: 1 2 3 4 5 6 7 8 9 10 11 12 13 14 15 16 17 18 19 20 21 22 23 24 25 26 27 28 29 30 31 32 33 34 35 36 37 38 39 40 41 42 43 44 45 46 47 48 49 50
000
ASUS43 KMKX 120400
RWRWI

WISCONSIN REGIONAL WEATHER ROUNDUP
NATIONAL WEATHER SERVICE MILWAUKEE/SULLIVAN WI
1000 PM CST MON DEC 11 2017

NOTE: "FAIR" INDICATES FEW OR NO CLOUDS BELOW 12,000 FEET WITH NO
SIGNIFICANT WEATHER AND/OR OBSTRUCTIONS TO VISIBILITY.

WIZ001-002-006>008-014>016-023>028-120500-
NORTHWEST WISCONSIN

CITY           SKY/WX    TMP DP  RH WIND       PRES   REMARKS
SUPERIOR ARPT  PTCLDY    15   6  67 NW13G18   30.17R WCI   1
ASHLAND        MOCLDY    14   4  64 NW14      30.12S WCI  -1
HAYWARD        CLOUDY    15   7  70 VRB5      30.09S WCI   8
SIREN          PTCLDY    15   8  73 NW6       30.16R WCI   6
CUMBERLAND     CLOUDY    16   9  73 NW15G22   30.11R WCI   1
RICE LAKE      PTCLDY    17   8  68 NW9       30.13R WCI   5
CHETEK         MOCLDY    16   9  73 CALM      30.12R
LADYSMITH      MOCLDY    17   9  69 NW14G28   30.08R WCI   3
EAU CLAIRE     NOT AVBL
MENOMONIE      CLEAR     19   9  63 NW12      30.13R WCI   7
NEW RICHMOND   CLEAR     17   8  69 NW14      30.16R WCI   3
OSCEOLA        CLEAR     17   8  67 NW10      30.21R WCI   5
$$

WIZ003>005-009-010-017-018-120500-
NORTH CENTRAL WISCONSIN

CITY           SKY/WX    TMP DP  RH WIND       PRES   REMARKS
MANITOWISH WTR LGT SNOW  14  10  86 NW9G23    29.97R WCI   2
ARBOR VITAE    LGT SNOW  17  12  81 NW13G18   29.95R WCI   3
WOODRUFF       LGT SNOW  17  12  81 NW13G18   29.95R WCI   3
RHINELANDER    LGT SNOW  16  11  80 NW12G18   29.95R WCI   3
EAGLE RIVER    LGT SNOW  15   8  73 N13G24    29.92R WCI   1
LAND O LAKES   CLOUDY    15   8  74 N16G29    29.94R HAZE    WCI  -1
PHILLIPS       CLOUDY    14   7  72 NW13G22   30.01R WCI   0
TOMAHAWK       CLOUDY    16   9  73 NW12G20   29.97R WCI   3
MEDFORD        MOCLDY    15   6  66 N18       29.99R WCI  -1
MERRILL        CLOUDY    18   8  65 N17G24    29.97R WCI   3
$$

WIZ029-030-035-036-043>047-120500-
CENTRAL WISCONSIN

CITY           SKY/WX    TMP DP  RH WIND       PRES   REMARKS
WAUSAU         CLOUDY    19   7  59 N20G31    29.97R WCI   3
MOSINEE        NOT AVBL
MARSHFIELD     MOCLDY    19   9  65 NW20      29.99R WCI   3
STEVENS POINT  PTCLDY    19   7  59 NW13G24   29.98R WCI   6
WAUPACA        CLOUDY    25  10  52 NW21G31   29.96R WCI  11
WAUTOMA        FLURRIES  23  11  60 NW16G26   29.98R WCI  10
WISC RAPIDS    MOCLDY    20   9  62 N18G29    30.01R WCI   5
CAMP DOUGLAS   NOT AVBL
$$

WIZ011>013-019>022-031-037>040-048>050-120500-
NORTHEAST WISCONSIN

CITY           SKY/WX    TMP DP  RH WIND       PRES   REMARKS
ANTIGO         MOCLDY    16   9  76 NW12G21   29.92R WCI   2
SHAWANO        CLEAR     23   9  54 N15G26    29.94R WCI  10
OCONTO         PTCLDY    21  10  62 NW15G23   29.92R WCI   8
STURGEON BAY   FLURRIES  22  12  65 NW20G33   29.89R WCI   7
GREEN BAY      FLURRIES  23  13  65 N14G23    29.93R WCI  11
MANITOWOC      CLOUDY    25  15  66 NW17G26   29.90R WCI  12
APPLETON       CLOUDY    21   7  53 N18G25    29.92R WCI   6
CLINTONVILLE   CLOUDY    23   9  54 N16G24    29.94R WCI  10
OSHKOSH        FLURRIES  24  13  62 NW21G31   29.93R WCI   9
$$

WIZ032>034-041-042-053>061-120500-
SOUTHWEST WISCONSIN

CITY           SKY/WX    TMP DP  RH WIND       PRES   REMARKS
LA CROSSE      PTCLDY    24  11  57 N15       30.10R WCI  11
SPARTA         MOCLDY    23  14  69 NW12G20   30.07R WCI  12
VIROQUA        CLOUDY    22  14  71 NW18G29   30.02R WCI   8
BOSCOBEL       CLOUDY    28  14  55 N13G36    30.06R WCI  17
PRAIRIE DU CHI CLOUDY    28  15  57 NW23G32   30.05R WCI  14
PLATTEVILLE    CLOUDY    31  24  73 NW16G28   29.97R WCI  20
$$

WIZ056-057-062-063-064-067-068-120500-
SOUTH CENTRAL WISCONSIN

CITY           SKY/WX    TMP DP  RH WIND       PRES   REMARKS
REEDSBURG      CLOUDY    25  12  58 N17G25    29.99R WCI  11
BARABOO/DELLS  LGT SNOW  25  15  63 NW15G25   29.97R WCI  13
LONE ROCK      NOT AVBL
MINERAL POINT  CLOUDY    30  21  69 NW22G32   29.95R WCI  17
MADISON        FLURRIES  28  18  66 N15G30    29.94R WCI  16
MIDDLETON      CLOUDY    30  18  60 NW24G33   29.94R WCI  16
WATERTOWN      CLOUDY    29  20  68 NW16G25   29.89R WCI  18
MONROE         CLOUDY    32  21  64 N14G22    29.91R WCI  22
JANESVILLE     CLOUDY    32  21  64 N14G24    29.90R WCI  22
$$

WIZ051-052-058>065-066-070>072-120500-
SOUTHEAST WISCONSIN

CITY           SKY/WX    TMP DP  RH WIND       PRES   REMARKS
MILWAUKEE      CLOUDY    32  22  66 NW15G24   29.86R WCI  22
WAUKESHA       CLOUDY    28  21  74 NW10G20   29.87R WCI  19
MILWAUKEE/TIMM CLOUDY    30  21  69 NW14      29.87R WCI  20
RACINE         CLOUDY    31  22  69 NW14G24   29.88R WCI  21
BURLINGTON     MOCLDY    41  38  90 NW10      29.88R
KENOSHA        CLOUDY    31  22  69 NW14G26   29.86R WCI  21
FOND DU LAC    CLOUDY    25  11  55 N21G32    29.93R WCI  11
SHEBOYGAN      CLOUDY    26  16  65 NW23G29   29.88R WCI  11
WEST BEND      CLOUDY    28  19  69 NW23G32   29.86R WCI  14
JUNEAU         CLOUDY    26  15  64 NW21G33   29.91R WCI  11
$$

LSZ147-162-120500-
LAKE SUPERIOR

STATION/POSITION TIME  TEMP    WIND        PRES    WAVE
                       AIR SEA DIR/SP/G            HT/PER
                 (UTC) (F)     (DEG/KT/KT) (MB)    (FT/S)
DEVILS ISLAND    0300   16     330/ 26/ 32 1021.2R
SAXON HARBOR     0340   20                 1019.0R
$$

LMZ867-665-643>646-120500-
LAKE MICHIGAN

STATION/POSITION TIME  TEMP    WIND        PRES    WAVE
                       AIR SEA DIR/SP/G            HT/PER
                 (UTC) (F)     (DEG/KT/KT) (MB)    (FT/S)
NORTHPORT PIER   0340   24     330/ 28/ 37 1011.2R
KEWAUNEE LAKESHO 0330   24     330/ 13/ 29 1010.8R
SHEBOYGAN LAKESH 0300   30     320/ 18/ 22 1011.3R
PORT WASHINGTON  0340   30     310/  9/ 17 1012.5R
MILWAUKEE LAKESH 0330   31     330/ 13/ 17   N/A
KENOSHA   LAKESH 0300   31     340/ 21/ 28 1010.5
$$

TC  - TEMPERATURE IN CELSIUS
VSB - VISIBILITY IN STATUTE MILES
WCI - WIND CHILL INDEX
HX  - HEAT INDEX




USA.gov is the U.S. government's official web portal to all federal, state and local government web resources and services.